TimeMST,TemperatureF,Dew PointF,Humidity,Sea Level PressureIn,VisibilityMPH,Wind Direction,Wind SpeedMPH,Gust SpeedMPH,PrecipitationIn,Events,Conditions,WindDirDegrees,DateUTC
12:53 AM,-8.0,-11.9,83,30.54,10.0,Calm,Calm,-,N/A,,Clear,0,2013-01-06 07:53:00
1:53 AM,-7.1,-11.0,83,30.51,10.0,Calm,Calm,-,N/A,,Clear,0,2013-01-06 08:53:00
2:53 AM,-5.1,-9.0,83,30.46,10.0,Calm,Calm,-,N/A,,Clear,0,2013-01-06 09:53:00
3:53 AM,-9.0,-14.1,79,30.46,10.0,East,4.6,-,N/A,,Clear,90,2013-01-06 10:53:00
4:53 AM,-9.0,-13.0,83,30.47,10.0,East,4.6,-,N/A,,Clear,80,2013-01-06 11:53:00
5:53 AM,-9.9,-15.0,78,30.56,10.0,Calm,Calm,-,N/A,,Clear,0,2013-01-06 12:53:00
6:53 AM,-9.9,-14.1,82,30.54,10.0,NNW,3.5,-,N/A,,Clear,330,2013-01-06 13:53:00
7:53 AM,-9.0,-14.1,79,30.58,10.0,Calm,Calm,-,N/A,,Clear,0,2013-01-06 14:53:00
8:53 AM,-6.0,-11.0,79,30.57,10.0,Calm,Calm,-,N/A,,Clear,0,2013-01-06 15:53:00
9:53 AM,-0.0,-6.0,76,30.52,10.0,Calm,Calm,-,N/A,,Clear,0,2013-01-06 16:53:00
10:53 AM,3.9,-4.0,70,30.50,10.0,ESE,3.5,-,N/A,,Clear,120,2013-01-06 17:53:00
11:53 AM,7.0,-0.0,73,30.44,10.0,Calm,Calm,-,N/A,,Clear,0,2013-01-06 18:53:00
12:53 PM,12.9,3.0,65,30.36,10.0,Calm,Calm,-,N/A,,Clear,0,2013-01-06 19:53:00
1:53 PM,15.1,5.0,64,30.33,10.0,Calm,Calm,-,N/A,,Clear,0,2013-01-06 20:53:00
2:53 PM,16.0,5.0,62,30.28,10.0,ESE,5.8,-,N/A,,Mostly Cloudy,110,2013-01-06 21:53:00
3:53 PM,17.1,6.1,62,30.32,10.0,Calm,Calm,-,N/A,,Overcast,0,2013-01-06 22:53:00
4:53 PM,15.1,6.1,68,30.31,10.0,Calm,Calm,-,N/A,,Mostly Cloudy,0,2013-01-06 23:53:00
5:53 PM,12.0,5.0,73,30.33,10.0,Calm,Calm,-,N/A,,Clear,0,2013-01-07 00:53:00
6:53 PM,7.0,1.9,80,30.37,10.0,East,3.5,-,N/A,,Clear,80,2013-01-07 01:53:00
7:53 PM,3.9,1.0,88,30.39,10.0,ENE,4.6,-,N/A,,Clear,70,2013-01-07 02:53:00
8:53 PM,-0.0,-5.1,79,30.39,10.0,North,5.8,-,N/A,,Clear,350,2013-01-07 03:53:00
9:53 PM,-4.0,-8.0,83,30.37,10.0,ENE,3.5,-,N/A,,Clear,70,2013-01-07 04:53:00
10:53 PM,-2.0,-7.1,79,30.36,10.0,NNE,9.2,-,N/A,,Clear,30,2013-01-07 05:53:00
11:53 PM,-6.0,-9.9,83,30.35,10.0,Calm,Calm,-,N/A,,Clear,0,2013-01-07 06:53:00